#timestamp,LO_Frequency,Hit,StdDev 
1660791615.6,286046998.2,N
1660791635.5,286046998.6,N
1660791655.3,286047000.6,N
1660791675.1,286046999.9,N
1660791695.9,286047001.4,N
1660791715.7,286047003.6,N
1660791735.6,286047001.4,N
1660791755.4,286047000.7,N
1660791775.2,286046998.6,N
1660791795.1,286046998.9,N
1660791796.0,286046998.9,N
1660791815.8,286046999.4,N
1660791835.6,286046998.8,N
1660791855.5,286046998.4,N
1660791875.3,286047000.9,N
1660791895.2,286047000.4,N
1660791915.9,286047000.2,N
1660791935.7,286047002.2,N
1660791955.6,286047003.4,N
1660791975.4,286047003.3,N
1660791995.2,286047003.2,N
1660792015.1,286047004.5,N
1660792016.0,286047004.5,N
1660792035.8,286047005.1,N
1660792055.7,286047003.0,N
1660792075.5,286047001.6,N
1660792095.3,286047000.4,N
1660792115.2,286047004.3,N
1660792135.0,286047003.4,N
1660792135.9,286047003.4,N
1660792155.7,286047003.6,N
1660792175.6,286047005.9,N
1660792195.4,286047003.0,N
1660792215.3,286047001.6,N
1660792235.1,286047002.3,N
1660792236.0,286047002.3,N
1660792255.8,286047002.7,N
1660792275.7,286047004.3,N
1660792295.5,286047004.0,N
1660792315.3,286047000.5,N
1660792335.2,286047005.6,N
1660792355.0,286047002.0,N
1660792355.9,286047002.0,N
1660792375.8,286047000.4,N
1660792395.6,286047001.6,N
1660792415.4,286047000.1,N
1660792435.3,286046999.8,N
1660792455.1,286047000.4,N
1660792475.9,286047000.7,N
1660792495.7,286047002.5,N
1660792515.5,286047000.2,N
1660792535.4,286047001.2,N
1660792555.2,286047001.1,N
1660792575.0,286046998.5,N
1660792575.9,286046998.5,N
1660792595.8,286046999.5,N
1660792615.6,286046999.4,N
1660792635.5,286046996.5,N
1660792655.3,286046996.8,N
1660792675.1,286047000.9,N
1660792695.9,286047002.3,N
1660792715.7,286047002.3,N
1660792735.5,286046998.6,N
1660792755.4,286046996.7,N
1660792775.2,286046998.2,N
1660792795.1,286046999.8,N
1660792796.0,286046999.8,N
1660792815.8,286047001.3,N
1660792835.6,286047004.3,N
1660792855.5,286047001.7,N
1660792875.3,286047001.4,N
1660792895.1,286047001.5,N
1660792915.9,286047004.0,N
1660792935.7,286047002.0,N
1660792955.6,286047002.7,N
1660792975.4,286047001.7,N
1660792995.2,286047000.7,N
1660793015.1,286047001.1,N
1660793016.0,286047001.1,N
1660793035.8,286046999.8,N
1660793055.7,286047002.1,N
1660793075.5,286047001.6,N
1660793095.3,286047001.3,N
1660793115.2,286047006.0,Y
1660793135.0,286047002.9,P
1660793135.9,286047002.9,N
1660793155.7,286047003.9,P
1660793175.6,286047003.8,Y
1660793195.4,286047000.4,P
1660793215.3,286047002.1,N
1660793235.1,286047000.4,N
1660793236.0,286047000.4,N
1660793255.8,286047000.5,N
1660793275.7,286047002.6,N
1660793295.5,286047002.2,N
1660793315.3,286047000.8,N
1660793335.2,286047000.1,N
1660793355.0,286046998.7,N
1660793355.9,286046998.7,N
1660793375.8,286046999.0,N
1660793395.6,286047002.7,N
1660793415.4,286047002.3,N
1660793435.3,286047001.1,N
1660793455.1,286046997.6,N
1660793475.9,286046996.9,N
1660793495.7,286046998.7,N
1660793515.5,286047000.7,N
1660793535.4,286047000.5,N
1660793555.2,286046999.3,N
1660793575.0,286046998.5,N
1660793575.9,286046998.5,N
1660793595.8,286046998.2,N
1660793615.6,286046998.6,N
1660793635.5,286046999.2,N
1660793655.3,286047002.3,N
1660793675.1,286047000.5,N
1660793695.9,286047000.6,N
1660793715.7,286047002.6,N
1660793735.5,286047002.2,N
1660793755.4,286047002.7,N
1660793775.2,286047001.9,N
1660793795.1,286047002.2,N
1660793796.0,286047002.2,N
1660793815.8,286047000.3,N
1660793835.6,286047001.2,N
1660793855.5,286046998.4,N
1660793875.3,286046998.6,N
1660793895.1,286047002.0,N
1660793915.9,286047002.3,N
1660793935.7,286047002.4,N
1660793955.6,286047002.2,N
1660793975.4,286047000.6,N
1660793995.2,286047001.0,N
1660794015.1,286047000.0,N
1660794016.0,286047000.0,N
1660794035.8,286047000.3,N
1660794055.7,286047000.3,N
1660794075.5,286047000.1,N
1660794095.3,286047000.2,N
1660794115.2,286046999.8,N
1660794135.9,286047001.5,N
1660794155.7,286047003.0,N
1660794175.6,286047001.4,N
1660794195.4,286047002.6,N
1660794215.3,286047002.6,N
1660794235.1,286046999.9,N
1660794236.0,286046999.9,N
1660794255.8,286047000.1,N
1660794275.7,286047001.0,N
1660794295.5,286046999.2,N
1660794315.3,286046998.1,N
1660794335.2,286046998.1,N
1660794355.0,286047001.2,N
1660794355.9,286047001.2,N
1660794375.8,286047001.5,N
1660794395.6,286047000.2,N
1660794415.4,286046999.9,N
1660794435.3,286047000.2,N
1660794455.1,286047002.6,N
1660794475.8,286046998.4,N
1660794495.7,286046998.5,N
1660794515.5,286047001.1,N
1660794535.4,286046998.7,N
1660794555.2,286046997.8,N
1660794575.0,286046997.8,N
1660794575.9,286046997.8,N
1660794595.8,286046997.2,N
1660794615.6,286046998.1,N
1660794635.4,286046998.6,N
1660794655.3,286046998.5,N
1660794675.1,286046997.4,N
1660794695.9,286046995.3,N
1660794715.7,286046995.7,N
1660794735.5,286046996.2,N
1660794755.4,286046993.7,Y
1660794775.2,286046997.3,P
1660794795.0,286046996.5,P
1660794795.9,286046996.5,P
1660794815.8,286046997.3,N
1660794835.6,286046993.4,Y
1660794855.5,286046997.6,P
1660794875.3,286046997.8,P
1660794895.1,286046995.0,P
1660794915.9,286046997.2,N
1660794935.7,286046997.8,N
1660794955.6,286046998.7,N
1660794975.4,286047001.1,N
1660794995.2,286047001.1,N
1660795015.1,286046999.2,N
1660795016.0,286046999.2,N
1660795035.8,286047000.6,N
1660795055.6,286047002.3,N
1660795075.5,286047000.5,N
1660795095.3,286046999.9,N
1660795115.2,286047000.0,N
1660795135.9,286046999.7,N
1660795155.7,286047000.2,N
1660795175.6,286047002.0,N
1660795195.4,286047004.1,N
